Hourly Data Report for October 04, 2015

All times are specified in Local Standard Time (LST). Add 1 hour to adjust for Daylight Saving Time where and when it is observed.

OTTAWA INTL A
ONTARIO

45°19'00.000" N
75°40'00.000" W
114.90 m
6106001
71628
YOW

Download Data

Hourly Data (October 2015)
Hourly Data Report for October 4, 2015
Temp Definition
°C
Dew Point Temp Definition
°C
Rel Hum Definition
%
Wind Dir Definition
10's deg

Wind Spd Definition
km/h
Visibility Definition
km
Stn Press Definition
kPa
Hmdx Definition


Wind Chill Definition


Weather Definition


TIME
00:00 Legend Double Dagger 6.2 1.7 73 6 21 24.1 101.90     LegendNANA
01:00 Legend Double Dagger 5.5 1.8 77 6 20 24.1 101.88     Mostly Cloudy
02:00 Legend Double Dagger 5.9 2.0 76 7 21 24.1 101.82     LegendNANA
03:00 Legend Double Dagger 5.9 1.6 74 6 22 24.1 101.80     LegendNANA
04:00 Legend Double Dagger 5.2 1.3 76 6 22 24.1 101.78     Mostly Cloudy
05:00 Legend Double Dagger 5.1 1.2 76 7 23 24.1 101.76     LegendNANA
06:00 Legend Double Dagger 5.0 1.3 77 7 14 24.1 101.78     LegendNANA
07:00 Legend Double Dagger 5.1 1.2 76 7 19 24.1 101.79     Mostly Cloudy
08:00 Legend Double Dagger 5.9 1.6 74 8 19 24.1 101.79     LegendNANA
09:00 Legend Double Dagger 7.7 2.4 69 6 19 24.1 101.80     LegendNANA
10:00 Legend Double Dagger 10.1 3.4 63 8 14 24.1 101.75     Mostly Cloudy
11:00 Legend Double Dagger 11.6 3.9 59 5 13 24.1 101.69     LegendNANA
12:00 Legend Double Dagger 13.5 3.4 50 7 10 24.1 101.59     LegendNANA
13:00 Legend Double Dagger 14.0 3.2 48 9 14 24.1 101.50     Mostly Cloudy
14:00 Legend Double Dagger 14.7 3.9 48 8 12 24.1 101.42     LegendNANA
15:00 Legend Double Dagger 14.9 3.5 46 9 17 24.1 101.35     LegendNANA
16:00 Legend Double Dagger 14.4 3.0 46 7 14 24.1 101.30     Mostly Cloudy
17:00 Legend Double Dagger 13.0 3.2 51 7 8 24.1 101.30     LegendNANA
18:00 Legend Double Dagger 11.6 4.2 60 5 13 24.1 101.29     LegendNANA
19:00 Legend Double Dagger 11.1 3.7 60 5 10 24.1 101.28     Mostly Cloudy
20:00 Legend Double Dagger 10.3 3.2 61 6 10 24.1 101.23     LegendNANA
21:00 Legend Double Dagger 10.2 3.3 62 5 13 24.1 101.21     LegendNANA
22:00 Legend Double Dagger 9.6 2.9 63 6 14 24.1 101.15     Mostly Cloudy
23:00 Legend Double Dagger 9.2 3.4 67 5 10 24.1 101.15     LegendNANA

Notes on Data Quality.

Legend

  • E = Estimated
  • M = Missing
  • NA = Not Available
  • ‡ = Partner data that is not subject to review by the National Climate Archives
Date modified: